Ana Sayfa
METAR-TAF:

METAR-TAF

Havaalanları :

Sparta Community Airport (Hunter Field)

Sparta, Illinois, Amerika Birleşik Devletleri

Enlem: 38-08-56N, Boylam: 089-41-55W, yükseklik: 164 m

Güncel hava durumu gözlemi

Rapor saat 12:55 UTC de 28 dakika önce yapıldı.
Rüzgar güney/güneydoğudan 6 kt
Sıcaklık 25°C
Nem 74%
Basınç 1015 hPa
Görüş mesafesi: 16.1 km
Açık gökyüzü

METAR: KSAR 161255Z AUTO 16006KT 10SM CLR 25/20 A2998 RMK AO2 T02510200

Saat: 08:23 (13:23 UTC)


TAF: eksik

4.000'den fazla havaalanı için hava durumu gözlemleri ve tahminleri (METAR ve TAF raporları).

Kullanılabilir istasyonlar harita üzerinde sarı ve kırmızı noktalarla gösterilir.

İstasyonun adını görmek için fareyi noktanın üzerinde gezdirin.

Sonrasında hava gözlem ve tahminlerini görmek için tıklayın.

Haritayı değiştirmek için: yaklaştırmak için siyah artı işaretli yeşil düğmeye ve uzaklaştırmak için de eksi işaretli düğmeye hızla tıklayın; bitişik haritalar için yeşil okları kullanın.


METAR-TAF: